マスター彗星

C/2020 F5 ( MASTER )

English version
Home page
Updated on June 29, 2020

---------------------------------------------------------------------

・ プロフィール

発見日 2020年3月28日
発見光度 15.8等
発見者 Mobile Astronomical System of the Telescope-Robots (MASTER) auto-detection system near San Juan, Argentina

・ 写真集

・ 軌道要素

Epoch 2021 Mar. 7.0 TT = JDT 2459280.5
T 2021 Mar. 24.16061 TT                                 Rudenko
q   4.3261259            (2000.0)            P               Q
z  -0.0007062      Peri.  311.05782     +0.57190720     +0.81028989
 +/-0.0000318      Node   350.62279     -0.28577460     +0.05067846
e   1.0030552      Incl.   51.70582     -0.76893109     +0.58383386
From 123 observations 2020 Mar. 16-June 6, mean residual 0".6.

・ 星図

・ 光度変化

        m1 = 5.0 + 5 logΔ + 10.0 log r

---------------------------------------------------------------------

軌道要素はM.P.E.C. 2020-M114に掲載されたものです。
星図はステラナビゲータ Ver.10 (アストロアーツ) で作成したものです。
光度グラフはComet for Windowsで作成したものです。

---------------------------------------------------------------------

Copyright(C) Seiichi Yoshida (comet@aerith.net). All rights reserved.